Patterson, LA

10:34 AM CST on November 20, 2019 (GMT -0600)
Williams Memorial

Weather History for KPTN - September, 2019

Change the Weather History Date:

Saturday, September 7, 2019

  Actual Average Record
Temperature  
Mean Temperature 87 °F -  
Max Temperature 96 °F 85 °F 93 °F (2007)
Min Temperature 78 °F 71 °F 59 °F (2011)
Cooling Degree Days 22    
Growing Degree Days 37 (Base 50)    
Moisture  
Dew Point 77 °F    
Average Humidity 78    
Maximum Humidity 97    
Minimum Humidity 51    
Precipitation  
Precipitation 0.00 in - - ()
Sea Level Pressure  
Sea Level Pressure 30.00 in    
Wind  
Wind Speed 4 mph (WNW)    
Max Wind Speed 12 mph    
Max Gust Speed -    
Visibility 10 miles    
Events      
Averages and records for this station are not official NWS values.
T = Trace of Precipitation, MM = Missing Value Source: NWS Daily Summary

Daily Weather History Graph

Daily Weather History Graph

Search for Another Location

Airport or City:

Astronomy

Sep. 07, 2019 Rise Set
Actual Time 6:45 AM CDT 7:20 PM CDT
Civil Twilight 6:21 AM CDT 7:44 PM CDT
Nautical Twilight 5:53 AM CDT 8:12 PM CDT
Astronomical Twilight 5:24 AM CDT 8:41 PM CDT
Moon 3:15 PM CDT (9/7) 12:57 AM CDT (9/7)
Length of Visible Light 13h 23m
Length of Day
12h 34m
Waxing Gibbous, 66% of the Moon is Illuminated
Sep 7
Waxing Gibbous
Sep 13
Full
Sep 21
Last Quarter
Sep 28
New
Oct 5
First Quarter

Hourly Weather History & Observations

Time (CDT) Temp. Heat Index Dew Point Humidity Pressure Visibility Wind Dir Wind Speed Gust Speed Precip Events Conditions
12:56 AM 79.0 °F - 78.1 °F 97% 30.01 in 10.0 mi Calm Calm - N/A   Clear
2:56 AM 79.0 °F - 77.0 °F 94% 30.00 in 10.0 mi WNW 4.6 mph - N/A   Clear
3:56 AM 80.1 °F 85.8 °F 77.0 °F 90% 30.00 in 10.0 mi NW 5.8 mph - N/A   Clear
4:56 AM 79.0 °F - 77.0 °F 94% 30.00 in 10.0 mi NW 5.8 mph - N/A   Clear
5:56 AM 78.1 °F - 75.9 °F 93% 30.02 in 10.0 mi West 3.5 mph - N/A   Clear
6:56 AM 78.1 °F - 75.9 °F 93% 30.03 in 10.0 mi WNW 3.5 mph - N/A   Clear
7:56 AM 80.1 °F 85.4 °F 75.9 °F 87% 30.05 in 10.0 mi NNW 4.6 mph - N/A   Clear
8:56 AM 82.9 °F 90.8 °F 75.9 °F 79% 30.05 in 10.0 mi North 8.1 mph - N/A   Clear
9:56 AM 87.1 °F 97.3 °F 75.9 °F 69% 30.06 in 10.0 mi North 6.9 mph - N/A   Clear
10:56 AM 90.0 °F 101.3 °F 75.9 °F 63% 30.04 in 10.0 mi WNW 5.8 mph - N/A   Clear
11:56 AM 93.0 °F 105.3 °F 75.9 °F 57% 30.03 in 10.0 mi North 8.1 mph - N/A   Clear
1:56 PM 93.9 °F 105.4 °F 75.0 °F 54% 30.00 in 10.0 mi Variable 4.6 mph - N/A   Mostly Cloudy
2:56 PM 96.1 °F 108.6 °F 75.0 °F 51% 29.97 in 10.0 mi Calm Calm - N/A   Partly Cloudy
3:56 PM 91.9 °F 103.9 °F 75.9 °F 59% 29.97 in 10.0 mi West 3.5 mph - N/A   Clear
4:56 PM 91.9 °F 105.9 °F 77.0 °F 62% 29.96 in 10.0 mi SSW 3.5 mph - N/A   Partly Cloudy
5:56 PM 91.9 °F 101.3 °F 73.9 °F 55% 29.96 in 10.0 mi West 11.5 mph - N/A   Clear
6:56 PM 89.1 °F 99.1 °F 75.0 °F 63% 29.96 in 10.0 mi West 6.9 mph - N/A   Clear
7:56 PM 82.0 °F 91.0 °F 78.1 °F 88% 29.96 in 8.0 mi SW 3.5 mph - N/A   Clear
8:56 PM 81.0 °F 88.6 °F 78.1 °F 91% 29.98 in 10.0 mi Calm Calm - N/A   Clear
9:56 PM 81.0 °F 88.6 °F 78.1 °F 91% 29.99 in 10.0 mi Calm Calm - N/A   Clear
10:56 PM 80.1 °F 86.4 °F 78.1 °F 94% 30.00 in 10.0 mi SSW 3.5 mph - N/A   Clear
11:56 PM 80.1 °F 86.7 °F 79.0 °F 96% 29.99 in 10.0 mi Calm Calm - N/A   Clear